Current Weather Conditions: station 63113

sailwx.info

Wind from 190 at 8 knots

Wave height 2.2 meters (7 feet), 9 second period

Air temperature 5.8° C
Dewpoint 0.9° C

Last reported at 2018-Feb-22 02:00 UTC.
Time now 2018-Feb-22 03:24 UTC

Location: N 61°00' E 001°42'.
View on Google Maps.

See reports from other nearby stations

  
Tides and Currents Weather Stations Pressure Air Temp Water Temp Dewpoint Dewpoint Depression Visibility Wind Speed Wind Dir Waves Ship Positions
date/time (UTC)wind fromknots sea level pressurealtimeterstation pressurevisibilityair tempwater tempwave heightnotes
2018-Feb-22 02:00 190 8 5.8 2.2
2018-Feb-22 01:00 200 6 5.8 2.1
2018-Feb-22 00:00 200 6 5.8 2.2
2018-Feb-21 23:00 190 6 5.8 2.3
2018-Feb-21 22:00 180 5 5.9 2.2
2018-Feb-21 21:00 190 2 6.0 2.5
2018-Feb-21 20:00 130 1 7.9 2.8
2018-Feb-21 19:00 030 1 8.3 2.7
2018-Feb-21 18:00 040 6 7.3 3.0
2018-Feb-21 17:00 290 1 6.4 2.7
2018-Feb-21 16:00 290 5 6.6 3.0
2018-Feb-21 15:00 300 4 6.5 3.2
2018-Feb-21 14:00 300 5 6.2 2.9
2018-Feb-21 13:00 340 6 6.2
2018-Feb-21 12:00 330 6 6.0 3.2
2018-Feb-21 11:00 330 6 5.8 3.4
2018-Feb-21 10:00 320 8 6.2 3.2
2018-Feb-21 09:00 330 9 6.1 3.6
2018-Feb-21 08:00 320 9 6.1 3.2
2018-Feb-21 07:00 330 8 6.2 3.2
2018-Feb-21 06:00 330 9 5.8 3.1
2018-Feb-21 05:00 330 13 6.2 3.4
2018-Feb-21 04:00 330 13 6.2 3.5
2018-Feb-21 03:00 330 14 6.3 3.2
2018-Feb-21 02:00 320 15 6.6 3.6
2018-Feb-21 01:00 330 13 6.4 3.2
2018-Feb-21 00:00 330 13 6.6 3.3
2018-Feb-20 23:00 330 15 6.4 3.4
2018-Feb-20 22:00 320 13 6.8 3.6
2018-Feb-20 21:00 310 14 7.0 3.7
2018-Feb-20 20:00 310 15 7.1 3.3
2018-Feb-20 19:00 300 14 7.3 3.4
2018-Feb-20 18:00 270 8 6.2 3.3
2018-Feb-20 17:00 220 14 6.0 3.4
2018-Feb-20 16:00 210 18 5.6 3.1
2018-Feb-20 15:00 210 20 5.2 3.3
2018-Feb-20 14:00 200 20 4.9 3.2
2018-Feb-20 13:00 200 24 4.6 3.2
2018-Feb-20 12:00 200 22 4.4 3.3
2018-Feb-20 11:00 190 22 4.4 3.4
2018-Feb-20 10:00 180 25 4.2 3.4
2018-Feb-20 09:00 190 24 4.3 3.3
2018-Feb-20 08:00 170 25 4.1 3.2
2018-Feb-20 07:00 180 24 4.0 2.9
2018-Feb-20 06:00 180 24 4.1 3.0
2018-Feb-20 05:00 180 24 4.4 2.7
2018-Feb-20 04:00 170 25 5.0 2.6
2018-Feb-20 03:00 170 22 5.0 2.6